This is the latest recevied weather packets stored in our database for station/object DG7YEO-13. If no packets are shown the sender has not sent any weather packets the latest 10 day(s).
| Time | Temp. | Humidity | Pressure | Rain* | Wind** | Luminosity | Snow |
|---|---|---|---|---|---|---|---|
| 1777557725 | 20° C | 27% | 1027.8 hPa | 0 mm | - | - | - |
| 1777556825 | 19.44° C | 26% | 1028.1 hPa | 0 mm | - | - | - |
| 1777555925 | 19.44° C | 27% | 1028.1 hPa | 0 mm | - | - | - |
| 1777555025 | 19.44° C | 27% | 1028.3 hPa | 0 mm | - | - | - |
| 1777554125 | 18.89° C | 26% | 1028.4 hPa | 0 mm | - | - | - |
| 1777553225 | 18.89° C | 26% | 1028.7 hPa | 0 mm | - | - | - |
| 1777552325 | 18.89° C | 26% | 1028.8 hPa | 0 mm | - | - | - |
| 1777551425 | 18.89° C | 27% | 1028.8 hPa | 0 mm | - | - | - |
| 1777550525 | 18.89° C | 26% | 1028.9 hPa | 0 mm | - | - | - |
| 1777548726 | 17.78° C | 28% | 1029.2 hPa | 0 mm | - | - | - |
| 1777547825 | 17.78° C | 28% | 1029.2 hPa | 0 mm | - | - | - |
| 1777546926 | 17.22° C | 28% | 1029.4 hPa | 0 mm | - | - | - |
| 1777546025 | 17.22° C | 28% | 1029.7 hPa | 0 mm | - | - | - |
| 1777545125 | 16.67° C | 28% | 1029.8 hPa | 0 mm | - | - | - |
| 1777544225 | 16.67° C | 29% | 1029.9 hPa | 0 mm | - | - | - |
| 1777543325 | 16.67° C | 30% | 1030.1 hPa | 0 mm | - | - | - |
| 1777542425 | 16.67° C | 29% | 1030.1 hPa | 0 mm | - | - | - |
| 1777541525 | 16.11° C | 30% | 1030.2 hPa | 0 mm | - | - | - |
| 1777540625 | 15.56° C | 33% | 1030.4 hPa | 0 mm | - | - | - |
| 1777539725 | 15° C | 32% | 1030.4 hPa | 0 mm | - | - | - |
| 1777538824 | 14.44° C | 33% | 1030.4 hPa | 0 mm | - | - | - |
| 1777537925 | 14.44° C | 34% | 1030.5 hPa | 0 mm | - | - | - |
| 1777537025 | 13.89° C | 34% | 1030.5 hPa | 0 mm | - | - | - |
| 1777536126 | 13.33° C | 34% | 1030.5 hPa | 0 mm | - | - | - |
| 1777535225 | 13.33° C | 37% | 1030.6 hPa | 0 mm | - | - | - |
* Rain latest hour (hover to see other rain measurements)
** Current wind speed in m/s (hover to see current wind gust speed)